Regional Weather Roundup
Issued by NWS

Home | Current Version | Previous Version | Graphics & Text | Print | Product List | Glossary On
Versions: 1 2 3 4 5 6 7 8 9 10 11 12 13 14 15 16 17 18 19 20 21 22 23 24 25 26 27 28 29 30 31 32 33 34 35 36 37 38 39 40 41 42 43 44 45 46 47 48 49 50
000
ASUS43 KDMX 021207
RWRIA

WEATHER ROUNDUP FOR IOWA
NATIONAL WEATHER SERVICE DES MOINES IA
700 AM CDT WED SEP 02 2015

NOTE: "FAIR" INDICATES FEW OR NO CLOUDS BELOW 12,000 FEET WITH NO
SIGNIFICANT WEATHER AND/OR OBSTRUCTIONS TO VISIBILITY.

* - THESE STATIONS ARE NOT NWS STATIONS...THUS NOT UNDER NWS
QUALITY CONTROL.  THEY ALSO DO NOT REPORT WEATHER SUCH
AS PRECIPITATION OR FOG.

IAZ001>003-012>014-020>022-031>034-043>046-021300-
   NORTHWEST IOWA

CITY           SKY/WX    TMP DP  RH WIND       PRES   REMARKS
CARROLL *      CLEAR     68  68 100 S6        29.95R
CHEROKEE *     CLEAR     69  68  98 S7        29.90S
DENISON *      CLEAR     72  68  88 S14G21    29.90R
LE MARS *      CLEAR     70  68  94 S6G12     29.88S
ORANGE CITY *  CLEAR     68  66  94 SE6       29.89S FOG
SHELDON *      CLEAR     68  66  94 SE7G14    29.88S FOG
SIOUX CITY     CLEAR     69  64  84 SE9       29.87S
6HR MIN TEMP:  68; 6HR MAX TEMP:  74;

SPENCER        CLEAR     69  66  90 S9        29.91S FOG
6HR MIN TEMP:  69; 6HR MAX TEMP:  76;

STORM LAKE *   CLEAR     70  68  94 S9        29.93S
$$

IAZ055>058-069>071-079>083-090>094-021300-
   SOUTHWEST IOWA

CITY           SKY/WX    TMP DP  RH WIND       PRES   REMARKS
ATLANTIC *     MOCLDY    72  70  94 S9G15     29.95S
AUDUBON *      CLEAR     70  64  83 S9G17     29.95S
CLARINDA *     CLOUDY    72  70  94 S8G14     29.99R
COUNCIL BLFS * CLEAR     72  68  88 S14       29.92S
CRESTON *      CLOUDY    70  68  94 S9        30.01S
LAMONI         LGT RAIN  70  69  97 E6        30.05R FOG
6HR MIN TEMP:  70; 6HR MAX TEMP:  75; 6HR PCP:  0.25;

RED OAK *      CLOUDY    73  70  88 SE9       29.95S
SHENANDOAH *   MOCLDY    75  70  83 SE16G23   29.95R
$$

IAZ047>049-059>061-072>074-084-021300-
   CENTRAL IOWA

CITY           SKY/WX    TMP DP  RH WIND       PRES   REMARKS
AMES           LGT RAIN  69  66  90 S14       29.98F
6HR MIN TEMP:  68; 6HR MAX TEMP:  74; 6HR PCP:  0.61;

ANKENY *       LGT RAIN  70  70 100 E7        30.02R
CHARITON *     LGT RAIN  70  68  94 S5        30.02F
DES MOINES     TSTM      71  67  87 E13       30.01R
6HR MIN TEMP:  71; 6HR MAX TEMP:  77; 6HR PCP:  0.16;

GRINNELL*      RAIN      70  66  88 SW7       30.06R
KNOXVILLE *    LGT RAIN  70  68  94 SW6       30.02R
MARSHALLTOWN   LGT RAIN  70  67  90 SW7       29.98F
6HR MIN TEMP:  70; 6HR MAX TEMP:  72; 6HR PCP:  0.07;

PELLA *        RAIN      69  69 100 S3        30.05R
PERRY *          N/A     70  67  92 SE8       29.98S
$$

IAZ004>006-015-016-023>025-035-036-021300-
   NORTH CENTRAL IOWA

CITY           SKY/WX    TMP DP  RH WIND       PRES   REMARKS
ALGONA *       CLOUDY    72  68  88 S12       29.94S
CLARION *      CLOUDY    70  66  88 S12G20    29.96R
ESTHERVILLE    CLEAR     68  66  93 S10       29.92R
6HR MIN TEMP:  68; 6HR MAX TEMP:  73;

FORT DODGE *   CLOUDY    72  64  78 S10       29.96S
MASON CITY     MOCLDY    69  66  90 SW8       29.96S
6HR MIN TEMP:  69; 6HR MAX TEMP:  72; 6HR PCP:  0.05;

FOREST CITY *  MOCLDY    70  66  88 S12       29.95R
IOWA FALLS *     N/A     70  66  88 S9        29.99S
$$

IAZ007>011-017>019-026>030-037>042-050>054-066-021300-
   NORTHEAST IOWA

CITY           SKY/WX    TMP DP  RH WIND       PRES   REMARKS
CEDAR RAPIDS   CLOUDY    69  69 100 S7        30.02S
6HR MIN TEMP:  68; 6HR MAX TEMP:  72;

CHARLES CITY * MOCLDY    70  70 100 S5        29.97S FOG
CLINTON *      PTCLDY    68  64  88 S6        30.07R
DECORAH *      CLEAR     72  68  88 CALM      29.99R
DUBUQUE        MOCLDY    69  67  93 S5        30.04R FOG
6HR MIN TEMP:  66; 6HR MAX TEMP:  70;

MONTICELLO *   CLEAR     68  66  94 S3        30.02S FOG
OELWEIN *        N/A     70  68  94 S10       29.99F
WATERLOO       LGT RAIN  71  68  90 S5        29.96F
6HR MIN TEMP:  71; 6HR MAX TEMP:  74; 6HR PCP: TRACE;

$$

IAZ064-065-067-068-078-021300-
   EAST CENTRAL IOWA

CITY           SKY/WX    TMP DP  RH WIND       PRES   REMARKS
DAVENPORT      PTCLDY    71  67  87 SW6       30.06R
6HR MIN TEMP:  70; 6HR MAX TEMP:  75;

IOWA CITY      CLOUDY    67  66  97 CALM      30.04R FOG
6HR MIN TEMP:  67; 6HR MAX TEMP:  71;

MT. PLEASANT * CLOUDY    71  67  87 S3        30.06R FOG
MUSCATINE *    CLEAR     68  66  94 CALM      30.05R
QUAD CITIES    PTCLDY    72  67  84 CALM      30.05R
6HR MIN TEMP:  70; 6HR MAX TEMP:  76;

$$

IAZ062-063-075>077-085>089-095>099-021300-
   SOUTHEAST IOWA

CITY           SKY/WX    TMP DP  RH WIND       PRES   REMARKS
BURLINGTON     MOCLDY    70  69  97 S3        30.06R FOG
6HR MIN TEMP:  69; 6HR MAX TEMP:  74;

FAIRFIELD *    CLEAR     70  66  88 S5        30.05R
FORT MADISON * CLEAR     72  72 100 S5        30.07R
KEOKUK *       CLEAR     72  70  94 SW6       30.05R
OSKALOOSA *      N/A     68  67  96 CALM      30.05R FOG
CENTERVILLE *  LGT RAIN  68  68 100 S3        30.07R
OTTUMWA        CLOUDY    70  69  97 SW6       30.03R FOG
6HR MIN TEMP:  70; 6HR MAX TEMP:  72;

WASHINGTON *     N/A    N/A N/A N/A MISG        N/A
$$

ABBREVIATIONS USED IN REMARKS
   TC - TEMPERATURES IN CELSIUS
  WCI - WIND CHILL INDEX
   HX - HEAT INDEX
  VSB - VISIBILITY
$$



USA.gov is the U.S. government's official web portal to all federal, state and local government web resources and services.